Tracking 19795 objects as of 17-Jul-2019
HD Live streaming from Space Station
objects crossing your sky now

OSCAR 8

Track OSCAR 8 now!
10-day predictions
OSCAR 8 is classified as:


NORAD ID: 10703
Int'l Code: 1978-026B
Perigee: 897.8 km
Apogee: 909.2 km
Inclination: 99.0 °
Period: 102.9 minutes
Semi major axis: 7274 km
RCS: 0.4491 m2 (medium)
Launch date: March 5, 1978
Source: United States (US)
Launch site: AIR FORCE WESTERN TEST RANGE (AFWTR)

Uplink (MHz): 145.850-145.900
Downlink (MHz): 29.400- 29.500
Beacon (MHz): 29.402
Mode: SSB CW
Call sign:
Status: Inactive


Uplink (MHz): 145.900-146.000
Downlink (MHz): 435.200-435.100
Beacon (MHz): 435.095
Mode: SSB CW
Call sign:
Status: Inactive

aabbcc
Your satellite tracking list
Your tracking list is empty




NASA's NSSDC Master Catalog

Two Line Element Set (TLE):
1 10703U 78026B   19197.96950775 -.00000004  00000-0  27653-4 0  9991
2 10703  98.9961 152.5543 0007836  38.0781   3.3839 13.99260961110847
Source of the keplerian elements: AFSPC